Tracking 20626 objects as of 8-Apr-2020
HD Live streaming from Space Station
objects crossing your sky now

SL-24 R/B

Track SL-24 R/B now!
10-day predictions


NORAD ID: 33397
Int'l Code: 2008-049B
Perigee: 681.9 km
Apogee: 1,178.4 km
Inclination: 98.7 °
Period: 103.5 minutes
Semi major axis: 7301 km
RCS: 5.3066 m2 (large)
Launch date: October 1, 2008
Source: Commonwealth of Independent States (former USSR) (CIS)
Launch site: Orenburg, Russia (OREN)

Note: This is a ROCKET BODY
aabbcc
Your satellite tracking list
Your tracking list is empty




NASA's NSSDC Master Catalog

Two Line Element Set (TLE):
1 33397U 08049B   20099.47265523 -.00000017  00000-0  11509-4 0  9999
2 33397  98.7411 342.8219 0340024 131.0358  39.5973 13.91615128585089
Source of the keplerian elements: AFSPC